Regional Weather Roundup
Issued by NWS Sterling, VA

Home | Current Version | Previous Version | Text Only | Print | Product List | Glossary Off
Versions: 1 2 3 4 5 6 7 8 9 10 11 12 13 14 15 16 17 18 19 20 21 22 23 24 25 26 27 28

000
ASUS41 KLWX 271710
RWRLWX

REGIONAL WEATHER ROUNDUP
NATIONAL WEATHER SERVICE BALTIMORE MD/WASHINGTON DC
100 PM EDT FRI MAY 27 2016

Note: "FAIR" indicates few or no clouds below 12,000 feet
with no significant weather and/or obstructions to visibility.
 TC=TEMPERATURE CELSIUS

 * =Non NWS site. Station does not report precipitation (e.g. rain,
    snow, etc.), thunder, or fog.

DCZ001-MDZ009-015-VAZ040>042-051-053>054-271800-
WASHINGTON METRO

CITY           SKY/WX    TMP DP  RH WIND       PRES   REMARKS
WASHINGTON NAT PTSUNNY   85  68  56 S8        30.08S
DULLES         FAIR      87  65  47 SW6       30.07F
ANDREWS AFB    SUNNY     87  67  52 S8        30.07F
FT BELVOIR     FAIR      85  68  56 VRB3      30.08S
QUANTICO       FAIR      81  70  69 S5        30.09F
COLLEGE PARK*  FAIR      86  64  48 S3        30.06F
LEESBURG*      FAIR      88  68  51 S3        30.08S HX  91
MANASSAS*      SUNNY     86  64  48 S3        30.07F

$$

MDZ006>007-011-014-271800-
BALTIMORE METRO

CITY           SKY/WX    TMP DP  RH WIND       PRES   REMARKS
BWI AIRPORT    PTSUNNY   88  66  48 S5        30.06S HX  90
MD SCIENCE CTR   N/A     88  66  48 MISG      30.06S HX  90
MARTIN STATE   MOSUNNY   82  73  74 SE9       30.08S
ANNAPOLIS      SUNNY     77  68  73 SE13      30.07S
FORT MEADE*    SUNNY     86  66  51 SW5       30.09S

$$

MDZ012-015-019>023-271800-
MARYLAND EASTERN SHORE

CITY           SKY/WX    TMP DP  RH WIND       PRES   REMARKS
OCEAN CITY     SUNNY     72  64  76 S10G20    30.12S
SALISBURY      SUNNY     84  68  58 S10       30.10S
BAY BRIDGE AP* SUNNY     82  68  61 SE13      30.07F
CAMBRIDGE*     SUNNY     81  66  61 SE12      30.09S
EASTON*        SUNNY     84  73  70 SW7       30.12F HX  91

$$

MDZ017>025-271800-
SOUTHERN MARYLAND

CITY           SKY/WX    TMP DP  RH WIND       PRES   REMARKS
PATUXENT RIVER MOSUNNY   78  66  66 SE12      30.08F
ST INIGOES     SUNNY     83  68  60 SE6       30.08F
LEONARDTOWN*   SUNNY     82  64  54 W5        30.10F

$$

MDZ003>005-271800-
NORTH CENTRAL MARYLAND

CITY           SKY/WX    TMP DP  RH WIND       PRES   REMARKS
FREDERICK*     MOSUNNY   88  72  58 SW5       30.10S HX  94
HAGERSTOWN APT SUNNY     85  64  49 S8        30.07F
WESTMINSTER*   SUNNY     84  81  89 W8        30.09S HX  98

$$

MDZ501>502-271800-
WESTERN MARYLAND

CITY           SKY/WX    TMP DP  RH WIND       PRES   REMARKS
OAKLAND*       MOSUNNY   75  55  50 CALM      30.18S
CUMBERLAND*    SUNNY     86  66  51 SE3       30.10F

$$

VAZ025>031-271800-
SHENANDOAH VALLEY

CITY           SKY/WX    TMP DP  RH WIND       PRES   REMARKS
WINCHESTER*    FAIR      86  63  45 S5        30.08F
FRONT ROYAL*   FAIR      86  68  54 S3        30.08S
LURAY*         FAIR      86  66  51 SW8       30.09F
NEW MARKET*    FAIR      85  64  49 SW3       30.07F
STAUNTON*      FAIR      84  62  48 S6        30.12F
WAYNESBORO*    FAIR      82  63  52 SW6       30.12F

$$

WVZ021-048>050-054>055-271800-
EASTERN WEST VIRGINIA PANHANDLE

CITY           SKY/WX    TMP DP  RH WIND       PRES   REMARKS
MARTINSBURG    FAIR      85  66  53 SW6       30.06F
PETERSBURG*    FAIR      87  66  50 SE5       30.08F

$$

VAZ036>039-050-271800-
CENTRAL FOOTHILLS

CITY           SKY/WX    TMP DP  RH WIND       PRES   REMARKS
CHARLOTTESVILL FAIR      85  67  54 S7        30.09F
CULPEPER*      FAIR      87  68  51 CALM      30.08F HX  90
ORANGE*        FAIR      86  66  51 NE5       30.10F
GORDONSVILLE*  FAIR      85  69  60 SW5       30.08F
WARRENTON*     FAIR      88  63  42 SE5       30.08S

$$

VAZ055>057-271800-
NORTH AND CENTRAL PIEDMONT

CITY           SKY/WX    TMP DP  RH WIND       PRES   REMARKS
FREDERICKSBRG* FAIR      88  69  53 SW7       30.07S HX  92
STAFFORD*      FAIR      85  66  53 SW7       30.12S

$$

NCZ024-NYZ072-PAZ021-071-VAZ022-071-271800-
OTHER REGIONAL OBSERVATIONS

CITY           SKY/WX    TMP DP  RH WIND       PRES   REMARKS
NEW YORK CITY  SUNNY     86  64  47 S5        30.07F
PHILADELPHIA   MOSUNNY   86  66  51 S9        30.06F
PITTSBURGH     MOSUNNY   82  61  48 SW12G21   30.07S
ROANOKE        FAIR      84  62  47 VRB5      30.13F
RICHMOND       FAIR      84  67  56 S14       30.10F
RALEIGH        MOSUNNY   84  64  50 SW8       30.14F

$$

ANZ530>537-271800-
MARINE OBSERVATIONS

STATION/POSITION TIME  TEMP    WIND        PRES
                       AIR SEA DIR/SP/G
                 (UTC) (F)     (DEG/KT/KT) (MB)
THOMAS PT LIGHT  1700   73 66  160/ 13/ 14 1019.7F
BALT KEY BRIDGE  1600   77     100/  9/  9 1018.0F
COVE POINT       1600   68     170/ 11/ 13 1019.9R
LEWISETTA        1600   77 67   90/  3/  4 1018.9R
SOLOMONS ISLAND  1600   71 64   80/ 11/ 12   N/A
PINEY POINT      1606          110/  5/  5   N/A

$$





USA.gov is the U.S. government's official web portal to all federal, state and local government web resources and services.